period_start,C,m1,H,J0,J1,J2,J3,J4,J5,JA,JB,JC,JD,JJ,JK,JN,#
2018-03-14 00:04:21,0.00,3.35,0.00,13.13,16.34,19.83,14.54,46.60,1022.87,2066.96,2317.95,2350.00,2696.01,600.02,620.36,25.76,0000 0000 0000 0000 000000
2018-03-14 00:09:23,0.03,3.35,0.00,13.14,16.34,19.79,14.46,46.70,1022.89,2066.98,2317.41,2349.98,2696.00,599.57,620.07,25.81,0000 0000 0000 0000 000000
2018-03-14 00:14:24,0.00,3.36,0.00,13.14,16.33,19.79,14.56,46.73,1022.93,2066.98,2317.00,2349.92,2696.00,600.16,620.59,25.86,0000 0000 0000 0000 000000
2018-03-14 00:19:25,0.02,3.36,0.00,13.13,16.32,19.78,14.51,46.56,1022.91,2066.99,2316.95,2349.62,2695.97,599.88,620.28,25.91,0000 0000 0000 0000 000000
2018-03-14 00:24:27,0.04,3.36,0.00,13.14,16.32,19.78,14.57,46.58,1022.91,2066.99,2316.28,2349.13,2695.91,600.06,620.44,25.96,0000 0000 0000 0000 000000
2018-03-14 00:29:28,0.01,3.36,0.00,13.12,16.32,19.76,14.40,46.54,1022.87,2067.00,2316.01,2349.02,2695.59,599.43,619.74,26.01,0000 0000 0000 0000 000000
2018-03-14 00:34:29,0.01,3.36,0.00,13.14,16.31,19.78,14.53,46.70,1022.85,2067.02,2315.92,2349.00,2695.23,599.82,620.24,26.06,0000 0000 0000 0000 000000
2018-03-14 00:39:31,0.02,3.36,0.00,13.14,16.31,19.72,14.56,46.61,1022.77,2067.03,2315.33,2349.00,2695.01,600.11,620.31,26.11,0000 0000 0000 0000 000000
2018-03-14 00:44:32,0.00,3.36,0.00,13.16,16.31,19.72,14.59,46.63,1022.78,2067.01,2315.06,2348.95,2694.97,600.27,620.37,26.16,0000 0000 0000 0000 000000
2018-03-14 00:49:33,0.03,3.36,0.00,13.17,16.32,19.76,14.50,46.73,1022.86,2067.02,2315.00,2348.60,2694.37,599.81,620.20,26.21,0000 0000 0000 0000 000000
2018-03-14 00:54:34,0.03,3.36,0.00,13.17,16.32,19.74,14.55,46.70,1022.86,2067.03,2314.72,2348.11,2694.03,599.78,620.10,26.26,0000 0000 0000 0000 000000
2018-03-14 00:59:36,0.01,3.37,0.00,13.19,16.32,19.75,14.47,46.52,1022.65,2067.02,2314.03,2348.00,2693.99,600.07,620.18,26.31,0000 0000 0000 0000 000000
2018-03-14 01:04:37,0.01,3.37,0.00,13.21,16.32,19.73,14.59,46.58,1022.70,2067.02,2313.98,2347.98,2693.72,600.18,620.29,26.36,0000 0000 0000 0000 000000
2018-03-14 01:09:38,0.02,3.37,0.00,13.23,16.32,19.72,14.45,46.58,1022.64,2067.02,2313.85,2347.86,2693.07,599.69,619.72,26.41,0000 0000 0000 0000 000000
2018-03-14 01:14:39,0.05,3.37,0.00,13.25,16.34,19.74,14.52,46.56,1022.65,2067.02,2313.09,2347.21,2693.00,600.34,620.32,26.46,0000 0000 0000 0000 000000
2018-03-14 01:19:40,0.01,3.37,0.00,13.28,16.34,19.71,14.52,46.66,1022.64,2067.02,2312.92,2347.01,2692.93,600.44,620.36,26.51,0000 0000 0000 0000 000000
2018-03-14 01:24:42,0.04,3.37,0.00,13.32,16.36,19.70,14.53,46.58,1022.68,2067.02,2312.38,2347.00,2692.39,599.77,619.68,26.56,0000 0000 0000 0000 000000
2018-03-14 01:29:43,0.01,3.37,0.00,13.35,16.37,19.73,14.51,46.65,1022.71,2067.02,2312.02,2346.96,2692.02,600.24,619.99,26.61,0000 0000 0000 0000 000000
2018-03-14 01:34:44,0.02,3.37,0.00,13.39,16.39,19.72,14.60,46.70,1022.66,2067.00,2311.88,2346.57,2692.00,600.46,619.89,26.66,0000 0000 0000 0000 000000
2018-03-14 01:39:45,0.04,3.38,0.00,13.41,16.41,19.71,14.48,46.68,1022.63,2067.00,2311.37,2346.04,2691.61,599.86,619.48,26.71,0000 0000 0000 0000 000000
2018-03-14 01:44:47,0.01,3.38,0.00,13.44,16.43,19.75,14.42,46.55,1022.70,2067.00,2311.01,2346.00,2691.05,599.93,619.55,26.76,0000 0000 0000 0000 000000
2018-03-14 01:49:48,0.01,3.38,0.00,13.46,16.45,19.74,14.50,46.58,1022.72,2067.00,2310.83,2345.96,2691.00,600.22,619.79,26.81,0000 0000 0000 0000 000000
2018-03-14 01:54:49,0.05,3.38,0.00,13.49,16.47,19.76,14.50,46.64,1022.71,2066.99,2310.29,2345.53,2690.65,599.73,619.18,26.86,0000 0000 0000 0000 000000
2018-03-14 01:59:51,0.02,3.38,0.00,13.51,16.49,19.78,14.44,46.66,1022.61,2066.98,2310.02,2345.04,2690.03,599.86,619.33,26.91,0000 0000 0000 0000 000000
2018-03-14 02:04:52,0.00,3.38,0.00,13.54,16.52,19.79,14.55,46.58,1022.52,2066.97,2309.97,2345.00,2689.98,600.21,619.54,26.96,0000 0000 0000 0000 000000
2018-03-14 02:09:53,0.03,3.38,0.00,13.58,16.53,19.81,14.47,46.53,1022.53,2066.95,2309.29,2344.98,2689.75,599.62,618.82,27.01,0000 0000 0000 0000 000000
2018-03-14 02:14:55,0.03,3.38,0.00,13.60,16.55,19.82,14.44,46.68,1022.60,2066.90,2309.00,2344.56,2689.07,599.57,618.66,27.06,0000 0000 0000 0000 000000
2018-03-14 02:19:56,0.01,3.39,0.00,13.63,16.57,19.83,14.46,46.64,1022.68,2066.80,2308.62,2344.06,2689.00,599.68,618.84,27.11,0000 0000 0000 0000 000000
2018-03-14 02:24:57,-0.02,3.39,0.00,13.66,16.59,19.86,14.49,46.48,1022.80,2066.34,2308.03,2343.99,2688.63,600.19,619.29,27.16,0000 0000 0000 0000 000000
2018-03-14 02:29:59,0.00,3.39,0.00,13.69,16.61,19.89,14.39,46.59,1022.67,2066.17,2307.96,2343.94,2688.07,599.96,618.92,27.21,0000 0000 0000 0000 000000
2018-03-14 02:35:00,0.05,3.39,0.00,13.73,16.63,19.90,14.46,46.54,1022.64,2066.07,2307.22,2343.27,2687.99,600.04,618.85,27.26,0000 0000 0000 0000 000000
2018-03-14 02:40:01,0.01,3.39,0.00,13.76,16.66,19.92,14.37,46.58,1022.67,2066.02,2306.97,2343.00,2687.86,599.53,618.41,27.31,0000 0000 0000 0000 000000
2018-03-14 02:45:02,0.03,3.39,0.00,13.80,16.68,19.95,14.51,46.59,1022.79,2066.03,2306.53,2342.98,2687.09,600.25,619.14,27.36,0000 0000 0000 0000 000000
2018-03-14 02:50:03,0.03,3.39,0.00,13.84,16.71,19.96,14.53,46.56,1022.87,2066.01,2306.04,2342.54,2687.00,600.01,618.84,27.41,0000 0000 0000 0000 000000
2018-03-14 02:55:04,0.02,3.39,0.00,13.88,16.74,19.99,14.44,46.56,1022.92,2066.00,2305.90,2342.03,2686.80,600.15,618.80,27.46,0000 0000 0000 0000 000000
2018-03-14 03:00:05,0.04,3.39,0.00,13.91,16.77,20.02,14.48,46.61,1022.95,2066.00,2305.14,2341.99,2686.08,600.02,618.75,27.51,0000 0000 0000 0000 000000
2018-03-14 03:05:06,0.01,3.39,0.00,13.95,16.80,20.04,14.49,46.64,1022.96,2065.99,2304.94,2341.77,2685.99,600.09,618.71,27.56,0000 0000 0000 0000 000000
2018-03-14 03:10:07,0.06,3.40,0.00,14.00,16.83,20.06,14.48,46.64,1022.96,2065.98,2304.26,2341.10,2685.60,600.16,618.64,27.61,0000 0000 0000 0000 000000
2018-03-14 03:15:09,0.01,3.40,0.00,14.03,16.86,20.08,14.46,46.71,1022.96,2065.96,2304.00,2341.00,2685.02,599.90,618.30,27.66,0000 0000 0000 0000 000000
2018-03-14 03:20:10,-0.00,3.40,0.00,14.08,16.90,20.11,14.45,46.59,1022.96,2065.80,2303.74,2340.96,2684.97,599.99,618.37,27.72,0000 0000 0000 0000 000000
2018-03-14 03:25:12,0.02,3.40,0.00,14.11,16.93,20.15,14.47,46.64,1022.91,2065.57,2303.25,2340.44,2684.38,600.18,618.46,27.77,0000 0000 0000 0000 000000
2018-03-14 03:30:13,-0.02,3.40,0.00,14.16,16.96,20.18,14.49,46.82,1022.79,2065.16,2303.00,2340.03,2684.02,600.26,618.41,27.82,0000 0000 0000 0000 000000
2018-03-14 03:35:14,0.01,3.40,0.00,14.20,16.98,20.21,14.40,46.68,1022.82,2065.04,2302.68,2340.00,2683.98,600.19,618.18,27.87,0000 0000 0000 0000 000000
2018-03-14 03:40:16,0.03,3.40,0.00,14.24,17.01,20.25,14.41,46.75,1022.69,2065.01,2302.06,2339.88,2683.44,599.96,617.83,27.92,0000 0000 0000 0000 000000
2018-03-14 03:45:17,0.03,3.40,0.00,14.29,17.03,20.27,14.48,46.49,1022.71,2065.00,2301.99,2339.18,2683.01,600.19,617.90,27.97,0000 0000 0000 0000 000000
2018-03-14 03:50:18,0.01,3.40,0.00,14.34,17.06,20.31,14.34,46.42,1022.71,2065.00,2301.69,2339.01,2682.97,599.90,617.65,28.02,0000 0000 0000 0000 000000
2018-03-14 03:55:20,0.03,3.41,0.00,14.38,17.08,20.35,14.42,46.42,1022.68,2065.00,2301.06,2338.99,2682.41,600.02,617.61,28.07,0000 0000 0000 0000 000000
2018-03-14 04:00:21,0.01,3.41,0.00,14.41,17.11,20.37,14.42,46.59,1022.81,2064.98,2300.99,2338.84,2682.02,599.97,617.56,28.12,0000 0000 0000 0000 000000
2018-03-14 04:05:22,0.03,3.41,0.00,14.39,17.13,20.42,14.46,46.42,1022.92,2064.95,2300.67,2338.22,2681.99,600.10,617.88,28.17,0000 0000 0000 0000 000000
2018-03-14 04:10:24,0.02,3.41,0.00,14.10,17.14,20.44,14.49,46.38,1022.96,2064.86,2300.04,2338.02,2681.50,600.16,618.44,28.22,0000 0000 0000 0000 000000
2018-03-14 04:15:25,-0.01,3.41,0.00,13.94,17.15,20.56,14.46,46.48,1022.96,2064.74,2299.99,2338.00,2681.03,599.90,618.61,28.27,0000 0000 0000 0000 000000
2018-03-14 04:20:27,0.00,3.41,0.00,13.88,17.16,20.60,14.48,46.48,1022.96,2064.69,2299.97,2338.00,2680.99,600.03,618.90,28.32,0000 0000 0000 0000 000000
2018-03-14 04:25:28,0.01,3.41,0.00,13.83,17.17,20.63,14.43,46.53,1022.96,2064.50,2299.34,2337.94,2680.97,600.00,619.06,28.37,0000 0000 0000 0000 000000
2018-03-14 04:30:29,0.03,3.41,0.00,13.82,17.17,20.68,14.48,46.64,1022.96,2064.35,2298.99,2337.35,2680.65,599.77,618.95,28.42,0000 0000 0000 0000 000000
2018-03-14 04:35:30,0.04,3.41,0.00,13.80,17.17,20.68,14.54,46.73,1022.92,2064.64,2298.93,2337.07,2680.11,600.19,619.20,28.47,0000 0000 0000 0000 000000
2018-03-14 04:40:31,0.03,3.41,0.00,13.76,17.17,20.61,14.46,46.92,1022.92,2064.70,2298.28,2337.01,2680.00,599.75,618.76,28.52,0000 0000 0000 0000 000000
2018-03-14 04:45:33,0.01,3.42,0.00,13.76,17.17,20.61,14.42,47.23,1022.87,2064.76,2298.01,2337.00,2680.00,600.12,619.07,28.57,0000 0000 0000 0000 000000
2018-03-14 04:50:34,0.00,3.42,0.00,13.77,17.17,20.54,14.47,46.96,1022.95,2064.69,2297.96,2336.97,2679.93,599.74,618.82,28.62,0000 0000 0000 0000 000000
2018-03-14 04:55:35,0.03,3.42,0.00,13.79,17.17,20.54,14.54,46.78,1022.96,2064.58,2297.34,2336.92,2679.34,600.08,619.02,28.67,0000 0000 0000 0000 000000
2018-03-14 05:00:36,0.04,3.42,0.00,13.82,17.17,20.52,14.30,46.69,1022.93,2064.65,2297.01,2336.33,2679.04,599.59,618.50,28.72,0000 0000 0000 0000 000000
2018-03-14 05:05:37,-0.01,3.42,0.00,13.85,17.17,20.50,14.49,46.75,1022.95,2064.53,2296.97,2336.03,2678.98,600.19,618.88,28.77,0000 0000 0000 0000 000000
2018-03-14 05:10:39,0.04,3.42,0.00,13.89,17.17,20.51,14.44,46.80,1022.93,2064.61,2296.50,2336.00,2678.72,599.98,618.56,28.82,0000 0000 0000 0000 000000
2018-03-14 05:15:40,0.03,3.42,0.00,13.93,17.17,20.51,14.52,46.74,1022.92,2064.64,2296.04,2335.99,2678.09,600.08,618.77,28.87,0000 0000 0000 0000 000000
2018-03-14 05:20:42,0.00,3.42,0.00,13.96,17.18,20.52,14.43,46.71,1022.85,2064.63,2295.98,2335.82,2678.00,599.86,618.46,28.92,0000 0000 0000 0000 000000
2018-03-14 05:25:43,0.04,3.42,0.00,14.01,17.19,20.53,14.44,46.77,1022.86,2064.66,2295.59,2335.25,2677.96,599.87,618.32,28.97,0000 0000 0000 0000 000000
2018-03-14 05:30:44,0.03,3.42,0.00,14.04,17.19,20.52,14.50,46.81,1022.90,2064.51,2295.02,2335.01,2677.29,599.94,618.44,29.02,0000 0000 0000 0000 000000
2018-03-14 05:35:45,-0.03,3.42,0.00,14.08,17.19,20.53,14.51,46.72,1022.95,2064.34,2294.92,2334.98,2677.01,600.19,618.51,29.07,0000 0000 0000 0000 000000
2018-03-14 05:40:47,0.03,3.43,0.00,14.11,17.21,20.55,14.44,46.66,1022.93,2064.29,2294.23,2334.86,2676.95,599.96,618.24,29.12,0000 0000 0000 0000 000000
2018-03-14 05:45:48,0.03,3.43,0.00,14.15,17.22,20.55,14.46,46.59,1022.96,2064.13,2293.99,2334.15,2676.26,600.01,618.14,29.17,0000 0000 0000 0000 000000
2018-03-14 05:50:50,0.01,3.43,0.00,14.18,17.23,20.58,14.47,46.60,1022.96,2064.13,2293.78,2334.01,2676.01,600.05,618.14,29.22,0000 0000 0000 0000 000000
2018-03-14 05:55:51,0.01,3.43,0.00,14.22,17.24,20.59,14.50,46.64,1022.96,2064.08,2293.07,2333.99,2675.97,600.35,618.37,29.27,0000 0000 0000 0000 000000
2018-03-14 06:00:53,0.04,3.43,0.00,14.24,17.25,20.62,14.49,46.63,1022.96,2064.05,2292.89,2333.66,2675.37,600.13,618.16,29.32,0000 0000 0000 0000 000000
2018-03-14 06:05:54,0.03,3.43,0.00,14.28,17.27,20.60,14.48,46.72,1022.96,2064.03,2292.10,2333.06,2675.00,599.87,617.93,29.37,0000 0000 0000 0000 000000
2018-03-14 06:10:55,0.00,3.43,0.00,14.31,17.28,20.65,14.39,46.65,1022.95,2064.01,2291.99,2332.99,2674.76,599.86,617.75,29.42,0000 0000 0000 0000 000000
2018-03-14 06:15:56,0.05,3.44,0.00,14.34,17.29,20.66,14.41,46.58,1022.96,2064.01,2291.44,2332.82,2674.06,599.96,617.83,29.47,0000 0000 0000 0000 000000
2018-03-14 06:20:58,0.03,3.44,0.00,14.35,17.32,20.67,14.30,46.61,1022.95,2064.01,2291.01,2332.18,2673.95,599.71,617.48,29.52,0000 0000 0000 0000 000000
2018-03-14 06:25:59,0.04,3.44,0.00,14.38,17.33,20.69,14.35,46.55,1022.96,2064.00,2290.58,2332.00,2673.23,599.83,617.49,29.57,0000 0000 0000 0000 000000
2018-03-14 06:31:00,0.01,3.44,0.00,14.41,17.35,20.72,14.49,46.73,1022.96,2063.99,2290.02,2331.86,2672.99,600.13,617.88,29.62,0000 0000 0000 0000 000000
2018-03-14 06:36:01,0.05,3.44,0.00,14.42,17.37,20.73,14.51,46.62,1022.96,2063.99,2289.75,2331.20,2672.58,600.20,617.77,29.67,0000 0000 0000 0000 000000
2018-03-14 06:41:02,0.02,3.45,0.00,14.44,17.39,20.75,14.42,46.68,1022.96,2063.98,2289.03,2331.00,2672.02,599.90,617.46,29.72,0000 0000 0000 0000 000000
2018-03-14 06:46:03,0.04,3.45,0.00,14.47,17.40,20.79,14.38,46.83,1022.96,2063.98,2288.59,2330.68,2671.79,599.85,617.33,29.77,0000 0000 0000 0000 000000
2018-03-14 06:51:05,0.04,3.45,0.00,14.48,17.42,20.80,14.45,46.70,1022.97,2063.96,2288.02,2330.04,2671.05,599.99,617.54,29.82,0000 0000 0000 0000 000000
2018-03-14 06:56:06,0.02,3.45,0.00,14.51,17.44,20.80,14.41,46.63,1023.00,2063.93,2287.71,2329.99,2670.80,599.96,617.42,29.87,0000 0000 0000 0000 000000
2018-03-14 07:01:08,0.05,3.45,0.00,14.53,17.46,20.83,14.46,46.67,1023.02,2063.88,2287.03,2329.60,2670.08,600.19,617.65,29.92,0000 0000 0000 0000 000000
2018-03-14 07:06:09,0.01,3.45,0.00,14.57,17.48,20.85,14.34,46.58,1023.05,2063.71,2286.66,2329.02,2669.95,599.90,617.33,29.97,0000 0000 0000 0000 000000
2018-03-14 07:11:10,-0.01,3.45,0.00,14.59,17.50,20.89,14.38,46.63,1023.15,2063.26,2286.01,2328.90,2669.16,599.41,616.79,30.02,0000 0000 0000 0000 000000
2018-03-14 07:16:12,0.05,3.45,0.00,14.61,17.52,20.89,14.43,46.67,1023.31,2063.06,2285.40,2328.14,2668.92,599.93,617.34,30.07,0000 0000 0000 0000 000000
2018-03-14 07:21:13,0.01,3.46,0.00,14.63,17.54,20.91,14.42,46.73,1023.41,2063.03,2285.00,2328.00,2668.15,599.79,617.17,30.12,0000 0000 0000 0000 000000
2018-03-14 07:26:14,0.03,3.46,0.00,14.65,17.56,20.93,14.52,46.67,1023.44,2063.01,2284.44,2327.77,2667.97,600.32,617.69,30.17,0000 0000 0000 0000 000000
2018-03-14 07:31:16,0.04,3.46,0.00,14.67,17.58,20.96,14.40,46.67,1023.44,2063.00,2284.00,2327.07,2667.33,600.03,617.44,30.22,0000 0000 0000 0000 000000
2018-03-14 07:36:17,0.02,3.46,0.00,14.69,17.59,20.99,14.47,46.62,1023.45,2063.00,2283.48,2326.99,2666.99,600.08,617.63,30.27,0000 0000 0000 0000 000000
2018-03-14 07:41:18,0.05,3.46,0.00,14.70,17.62,21.01,14.50,46.60,1023.45,2063.00,2283.00,2326.54,2666.38,600.20,617.55,30.32,0000 0000 0000 0000 000000
2018-03-14 07:46:20,0.03,3.47,0.00,14.73,17.64,20.99,14.40,46.61,1023.44,2063.00,2282.29,2326.01,2666.00,600.02,617.24,30.37,0000 0000 0000 0000 000000
2018-03-14 07:51:21,0.02,3.47,0.00,14.76,17.65,21.04,14.48,46.81,1023.44,2062.99,2281.98,2325.93,2665.43,599.95,617.16,30.42,0000 0000 0000 0000 000000
2018-03-14 07:56:22,0.06,3.47,0.00,14.78,17.67,21.05,14.41,46.78,1023.44,2062.97,2281.29,2325.25,2665.00,599.84,616.90,30.47,0000 0000 0000 0000 000000
2018-03-14 08:01:24,0.02,3.47,0.00,14.80,17.69,21.08,14.42,46.65,1023.45,2062.97,2280.99,2325.00,2664.58,599.74,616.93,30.52,0000 0000 0000 0000 000000
2018-03-14 08:06:25,0.03,3.47,0.00,14.82,17.70,21.08,14.41,46.47,1023.45,2062.93,2280.36,2324.90,2664.02,599.48,616.55,30.57,0000 0000 0000 0000 000000
2018-03-14 08:11:26,0.03,3.48,0.00,14.83,17.72,21.10,14.41,46.52,1023.45,2062.79,2279.99,2324.14,2663.77,599.78,616.72,30.62,0000 0000 0000 0000 000000
2018-03-14 08:16:27,0.01,3.48,0.00,14.82,17.73,21.11,14.42,46.51,1023.45,2062.53,2279.31,2324.00,2663.06,600.17,617.26,30.67,0000 0000 0000 0000 000000
2018-03-14 08:21:28,0.01,3.48,0.00,14.82,17.74,21.15,14.40,46.45,1023.45,2062.22,2278.81,2323.56,2662.76,600.33,617.41,30.72,0000 0000 0000 0000 000000
2018-03-14 08:26:30,0.03,3.48,0.00,14.85,17.75,21.17,14.38,46.51,1023.46,2062.08,2278.08,2323.03,2662.05,599.93,617.00,30.77,0000 0000 0000 0000 000000
2018-03-14 08:31:31,0.01,3.48,0.00,14.90,17.77,21.17,14.39,46.46,1023.46,2062.07,2277.90,2322.96,2661.90,599.91,616.85,30.82,0000 0000 0000 0000 000000
2018-03-14 08:36:32,0.07,3.48,0.00,14.94,17.78,21.18,14.41,46.52,1023.48,2062.03,2277.11,2322.48,2661.15,600.00,616.95,30.87,0000 0000 0000 0000 000000
2018-03-14 08:41:33,0.02,3.48,0.00,14.94,17.79,21.22,14.38,46.44,1023.48,2062.01,2276.72,2322.01,2660.94,599.90,616.79,30.93,0000 0000 0000 0000 000000
2018-03-14 08:46:35,0.04,3.49,0.00,14.93,17.79,21.23,14.42,46.55,1023.51,2062.02,2276.03,2321.94,2660.30,599.97,616.84,30.98,0000 0000 0000 0000 000000
2018-03-14 08:51:36,0.04,3.49,0.00,14.90,17.80,21.22,14.37,46.48,1023.79,2062.01,2275.86,2321.25,2660.00,599.95,617.07,31.03,0000 0000 0000 0000 000000
2018-03-14 08:56:37,0.04,3.49,0.00,14.87,17.82,21.23,14.44,46.33,1023.87,2062.00,2275.09,2321.01,2659.53,600.36,617.56,31.08,0000 0000 0000 0000 000000
2018-03-14 09:01:38,0.01,3.49,0.00,14.85,17.82,21.22,14.45,46.48,1023.91,2062.00,2274.84,2320.97,2659.02,600.26,617.60,31.13,0000 0000 0000 0000 000000
2018-03-14 09:06:40,0.06,3.49,0.00,14.83,17.82,21.24,14.41,46.50,1023.83,2062.00,2274.07,2320.29,2658.84,600.19,617.39,31.18,0000 0000 0000 0000 000000
2018-03-14 09:11:41,0.03,3.50,0.00,14.79,17.82,21.26,14.46,46.56,1023.93,2062.00,2273.82,2320.01,2658.10,600.09,617.52,31.23,0000 0000 0000 0000 000000
2018-03-14 09:16:42,0.03,3.50,0.00,14.78,17.83,21.27,14.43,46.52,1023.94,2062.00,2273.07,2319.92,2657.95,599.99,617.46,31.28,0000 0000 0000 0000 000000
2018-03-14 09:21:43,0.06,3.50,0.00,14.77,17.84,21.27,14.35,46.46,1023.94,2062.00,2272.76,2319.28,2657.29,599.62,616.98,31.33,0000 0000 0000 0000 000000
2018-03-14 09:26:45,0.02,3.50,0.00,14.75,17.84,21.31,14.52,46.58,1023.94,2062.00,2272.04,2319.00,2657.00,600.30,617.95,31.38,0000 0000 0000 0000 000000
2018-03-14 09:31:46,0.03,3.50,0.00,14.72,17.84,21.34,14.46,46.49,1023.94,2061.99,2271.77,2318.88,2656.55,600.45,618.06,31.43,0000 0000 0000 0000 000000
2018-03-14 09:36:47,0.05,3.51,0.00,14.69,17.84,21.28,14.49,46.47,1023.95,2061.99,2271.05,2318.13,2656.02,600.09,617.63,31.48,0000 0000 0000 0000 000000
2018-03-14 09:41:48,0.02,3.51,0.00,14.69,17.83,21.32,14.45,46.38,1023.97,2061.98,2270.59,2318.00,2655.84,600.02,617.74,31.53,0000 0000 0000 0000 000000
2018-03-14 09:46:49,0.04,3.51,0.00,14.67,17.83,21.28,14.52,46.49,1023.95,2061.98,2270.01,2317.73,2655.07,600.42,618.12,31.58,0000 0000 0000 0000 000000
2018-03-14 09:51:51,0.04,3.51,0.00,14.67,17.82,21.26,14.41,46.52,1023.95,2061.99,2269.47,2317.09,2654.96,599.70,617.40,31.63,0000 0000 0000 0000 000000
2018-03-14 09:56:52,0.02,3.51,0.00,14.64,17.82,21.31,14.39,46.48,1023.95,2061.99,2269.00,2317.00,2654.29,599.89,617.67,31.68,0000 0000 0000 0000 000000
2018-03-14 10:01:53,0.03,3.51,0.00,14.63,17.82,21.27,14.51,46.59,1023.96,2061.99,2268.58,2316.86,2654.00,600.07,617.91,31.73,0000 0000 0000 0000 000000
2018-03-14 10:06:54,0.05,3.52,0.00,14.63,17.82,21.23,14.45,46.65,1023.95,2061.99,2268.01,2316.18,2653.66,599.91,617.81,31.78,0000 0000 0000 0000 000000
2018-03-14 10:11:56,0.02,3.52,0.00,14.62,17.81,21.24,14.50,46.70,1023.99,2061.99,2267.68,2316.01,2653.04,600.03,617.83,31.83,0000 0000 0000 0000 000000
2018-03-14 10:16:57,0.01,3.52,0.00,14.60,17.80,21.21,14.50,46.64,1024.02,2061.99,2267.04,2315.97,2652.95,600.25,618.21,31.88,0000 0000 0000 0000 000000
2018-03-14 10:21:58,0.06,3.52,0.00,14.59,17.79,21.26,14.43,46.73,1023.99,2061.99,2266.70,2315.45,2652.35,599.96,617.90,31.93,0000 0000 0000 0000 000000
2018-03-14 10:26:59,0.02,3.52,0.00,14.57,17.79,21.26,14.42,46.76,1023.98,2061.99,2266.03,2315.02,2651.99,599.90,617.91,31.98,0000 0000 0000 0000 000000
2018-03-14 10:32:01,0.04,3.53,0.00,14.58,17.79,21.25,14.49,46.64,1024.08,2062.00,2265.46,2314.94,2651.58,599.85,617.82,32.03,0000 0000 0000 0000 000000
2018-03-14 10:37:02,0.04,3.53,0.00,14.57,17.78,21.21,14.46,46.55,1024.18,2062.01,2265.00,2314.24,2651.02,599.97,617.96,32.08,0000 0000 0000 0000 000000
2018-03-14 10:42:03,0.03,3.53,0.00,14.57,17.77,21.21,14.54,46.66,1024.23,2062.00,2264.37,2314.01,2650.82,600.39,618.48,32.13,0000 0000 0000 0000 000000
2018-03-14 10:47:05,0.04,3.53,0.00,14.55,17.77,21.21,14.44,46.76,1024.21,2062.00,2263.89,2313.68,2650.07,599.99,617.99,32.18,0000 0000 0000 0000 000000
2018-03-14 10:52:06,0.05,3.54,0.00,14.54,17.76,21.20,14.53,46.77,1024.14,2062.02,2263.09,2313.05,2649.83,600.00,618.10,32.23,0000 0000 0000 0000 000000
2018-03-14 10:57:07,0.03,3.54,0.00,14.53,17.75,21.16,14.53,46.70,1024.05,2062.00,2262.64,2312.96,2649.08,600.14,618.15,32.28,0000 0000 0000 0000 000000
2018-03-14 11:02:09,0.05,3.54,0.00,14.52,17.74,21.14,14.51,46.59,1024.14,2062.03,2262.01,2312.30,2648.81,600.09,618.24,32.33,0000 0000 0000 0000 000000
2018-03-14 11:07:10,0.04,3.54,0.00,14.52,17.74,21.20,14.52,46.58,1024.28,2062.03,2261.27,2312.00,2648.07,600.04,618.34,32.38,0000 0000 0000 0000 000000
2018-03-14 11:12:11,0.03,3.54,0.00,14.51,17.74,21.16,14.52,46.73,1024.16,2062.05,2260.88,2311.75,2647.83,600.20,618.35,32.43,0000 0000 0000 0000 000000
2018-03-14 11:17:12,0.06,3.55,0.00,14.49,17.72,21.18,14.51,46.62,1024.01,2062.04,2260.07,2311.06,2647.06,600.09,618.25,32.48,0000 0000 0000 0000 000000
2018-03-14 11:22:13,0.04,3.55,0.00,14.49,17.72,21.20,14.50,46.67,1023.97,2062.05,2259.53,2310.97,2646.64,599.78,617.88,32.53,0000 0000 0000 0000 000000
2018-03-14 11:27:15,0.05,3.55,0.00,14.48,17.72,21.15,14.47,46.65,1023.97,2062.06,2258.96,2310.28,2646.02,599.99,618.15,32.58,0000 0000 0000 0000 000000
2018-03-14 11:32:16,0.04,3.55,0.00,14.48,17.70,21.15,14.49,46.78,1023.98,2062.06,2258.15,2309.99,2645.59,600.17,618.19,32.63,0000 0000 0000 0000 000000
2018-03-14 11:37:17,0.07,3.56,0.00,14.45,17.69,21.14,14.46,46.73,1024.02,2062.11,2257.52,2309.42,2645.00,599.91,618.16,32.69,0000 0000 0000 0000 000000
2018-03-14 11:42:19,0.04,3.56,0.00,14.44,17.69,21.13,14.44,46.87,1023.97,2062.11,2256.95,2309.01,2644.32,599.69,617.90,32.74,0000 0000 0000 0000 000000
2018-03-14 11:47:20,0.06,3.56,0.00,14.43,17.68,21.11,14.49,47.01,1023.96,2062.34,2256.11,2308.71,2643.96,600.18,618.44,32.79,0000 0000 0000 0000 000000
2018-03-14 11:52:21,0.08,3.57,0.00,14.42,17.67,21.11,14.48,46.88,1023.99,2062.56,2255.58,2308.04,2643.21,600.24,618.54,32.84,0000 0000 0000 0000 000000
2018-03-14 11:57:22,0.05,3.57,0.00,14.42,17.67,21.06,14.49,46.92,1024.04,2062.53,2254.83,2307.69,2642.67,599.84,618.20,32.89,0000 0000 0000 0000 000000
2018-03-14 12:02:23,0.06,3.57,0.00,14.41,17.65,21.13,14.48,46.88,1024.15,2062.60,2254.05,2307.03,2642.02,600.25,618.62,32.94,0000 0000 0000 0000 000000
2018-03-14 12:07:24,0.05,3.57,0.00,14.39,17.64,21.07,14.47,46.92,1024.19,2062.51,2253.23,2306.74,2641.39,599.96,618.29,32.99,0000 0000 0000 0000 000000
2018-03-14 12:12:25,0.08,3.58,0.00,14.38,17.64,21.10,14.52,46.92,1024.14,2062.83,2252.63,2306.05,2640.95,599.98,618.49,33.04,0000 0000 0000 0000 000000
2018-03-14 12:17:26,0.06,3.58,0.00,14.36,17.62,21.03,14.55,46.92,1024.17,2062.92,2251.80,2305.70,2640.13,600.21,618.70,33.09,0000 0000 0000 0000 000000
2018-03-14 12:22:27,0.05,3.59,0.00,14.33,17.62,21.07,14.43,47.02,1024.14,2062.95,2250.98,2305.02,2639.61,600.33,618.88,33.14,0000 0000 0000 0000 000000
2018-03-14 12:27:28,0.07,3.59,0.00,14.32,17.60,20.99,14.49,47.02,1024.05,2062.96,2250.13,2304.56,2638.91,600.10,618.53,33.19,0000 0000 0000 0000 000000
2018-03-14 12:32:30,0.05,3.59,0.00,14.30,17.59,21.01,14.53,46.95,1023.95,2062.97,2249.29,2304.01,2638.08,599.84,618.35,33.24,0000 0000 0000 0000 000000
2018-03-14 12:37:31,0.06,3.60,0.00,14.29,17.59,21.03,14.46,46.81,1023.96,2062.98,2248.67,2303.50,2637.64,599.92,618.39,33.29,0000 0000 0000 0000 000000
2018-03-14 12:42:32,0.03,3.60,0.00,14.28,17.57,20.99,14.45,46.81,1023.98,2062.98,2247.92,2303.00,2636.99,600.01,618.60,33.34,0000 0000 0000 0000 000000
2018-03-14 12:47:34,0.07,3.60,0.00,14.27,17.57,21.03,14.50,46.89,1023.98,2062.99,2247.09,2302.66,2636.27,600.26,618.84,33.39,0000 0000 0000 0000 000000
2018-03-14 12:52:35,0.04,3.60,0.00,14.27,17.57,20.98,14.52,46.94,1024.00,2062.98,2246.24,2302.02,2635.84,600.13,618.74,33.44,0000 0000 0000 0000 000000
2018-03-14 12:57:36,0.06,3.61,0.00,14.27,17.55,21.00,14.53,46.80,1024.03,2062.99,2245.57,2301.68,2635.06,599.98,618.51,33.49,0000 0000 0000 0000 000000